Tracking 19847 objects as of 17-Sep-2019
HD Live streaming from Space Station
objects crossing your sky now

FENGYUN 1C DEB

Track FENGYUN 1C DEB now!
10-day predictions


NORAD ID: 35176
Int'l Code: 1999-025DNG
Perigee: 811.8 km
Apogee: 894.7 km
Inclination: 98.7 °
Period: 101.8 minutes
Semi major axis: 7224 km
RCS: 0.0129 m2 (small)
Launch date: May 10, 1999
Source: People's Republic of China (PRC)
Launch site: Taiyaun Space Center, China (TSC)

Note: This is SATELLITE DEBRIS
aabbcc
Your satellite tracking list
Your tracking list is empty




NASA's NSSDC Master Catalog

Two Line Element Set (TLE):
1 35176U 99025DNG 19256.34136326  .00000097  00000-0  72132-4 0  9993
2 35176  98.6701 302.2921 0057378 123.3626 237.3057 14.13889669591688
Source of the keplerian elements: AFSPC